Dewpoint
53 53 54 53 54 54 54 54 55 56 56 57 57 57 58 58 58 44 25 34 36 61 50 13 8 9 11 12 20 24 24 22 24 23 35 39 42 44 52 55 56 57 58 60 61
53 52 53 53 53 53 53 53 54 55 56 57 57 57 57 58 41 28 47 56 55 59 13 9 5 4 5 7 12 21 23 22 24 27 37 45 46 46 51 53 54 54 56 55 53
52 53 52 53 53 53 53 53 54 55 55 56 57 57 58 54 37 18 60 58 57 50 16 6 5 2 2 3 6 17 21 23 26 28 34 44 52 52 53 55 57 55 56 56 56
52 52 52 52 53 53 53 53 54 54 55 56 56 57 57 45 18 36 61 59 59 30 14 6 5 3 1 2 4 9 19 24 31 32 39 44 49 50 52 53 55 56 57 57 56
52 51 52 52 52 52 53 53 53 55 56 56 56 56 49 32 18 43 64 60 30 27 9 6 6 5 2 -2 3 5 12 23 32 35 39 41 44 46 47 49 50 50 51 52 53
53 52 51 52 52 52 52 53 54 56 55 55 56 56 41 23 10 30 40 33 25 15 11 7 5 3 2 -0 2 6 7 16 30 32 35 37 39 43 46 46 45 44 44 44 45
52 52 52 51 51 51 52 54 56 55 54 55 56 49 37 20 24 30 29 22 14 9 9 9 6 3 7 4 2 3 14 18 27 31 33 36 37 41 44 44 41 40 41 42 43
51 51 51 52 50 52 54 56 56 55 54 56 56 46 32 19 21 26 21 22 18 21 20 13 11 7 13 7 4 5 14 18 23 29 32 32 34 39 41 41 38 38 38 39 41
53 51 51 51 51 52 55 54 54 54 56 56 50 43 27 32 17 26 24 23 22 21 24 16 12 16 13 11 7 7 4 13 24 24 25 27 35 37 38 38 37 37 36 36 37
52 52 51 51 51 53 54 54 56 55 52 44 38 36 29 16 13 21 27 30 27 27 23 18 15 13 12 6 2 5 4 4 18 26 27 29 33 34 35 35 35 34 35 35 35
51 51 51 51 52 53 52 47 46 45 40 29 25 22 22 27 21 21 26 28 26 29 23 23 13 9 8 10 5 6 7 8 28 29 28 31 31 32 34 33 32 32 33 34 35
52 51 51 51 52 54 52 41 40 38 33 36 29 23 24 26 19 19 25 25 23 21 20 17 14 11 6 6 6 7 9 20 27 28 28 30 30 31 32 32 31 30 31 31 32
52 52 52 51 53 51 43 40 37 36 32 26 28 28 24 26 21 17 22 23 20 17 14 16 11 6 7 7 10 11 11 21 24 29 28 29 28 30 30 30 30 30 30 30 31
52 53 52 53 47 41 38 38 35 37 31 25 21 24 23 26 23 22 19 20 18 17 14 15 11 11 11 10 9 9 6 16 23 27 21 28 16 31 31 30 30 29 28 27 29
52 52 52 53 49 35 42 36 34 41 25 23 24 28 23 23 23 24 19 20 19 17 18 15 14 12 13 15 16 14 12 15 23 27 18 27 23 31 31 30 29 29 28 27 28
53 52 52 46 46 42 36 36 41 33 20 25 27 23 23 23 22 22 18 19 18 19 19 18 17 13 12 17 22 22 18 19 22 24 17 22 24 29 29 31 30 28 27 27 27
52 52 51 43 35 36 36 38 33 23 26 25 24 22 22 22 22 22 22 21 19 21 20 18 16 19 19 21 23 23 23 18 19 16 14 18 22 29 33 32 30 28 26 27 26
51 52 46 39 38 39 39 33 30 19 23 28 27 26 23 22 22 23 22 21 23 21 18 18 15 16 20 20 20 23 23 17 19 15 11 17 23 31 31 30 28 26 26 27 27
51 48 37 29 34 36 35 29 26 26 27 28 29 28 26 22 24 24 23 20 20 22 24 23 20 20 18 18 20 25 23 23 23 22 17 23 32 31 30 29 27 26 27 28 29
46 36 32 39 42 36 32 31 28 27 24 24 28 30 27 25 25 26 25 23 22 24 28 29 28 24 20 20 20 23 22 26 22 24 22 20 30 28 31 29 27 27 28 29 29
46 36 38 31 38 36 30 27 28 25 26 24 27 30 30 30 31 26 25 23 23 23 26 27 31 27 25 24 19 19 18 25 27 25 23 24 26 35 33 32 29 28 27 27 27
41 35 34 38 32 30 27 29 29 20 25 25 27 26 29 31 31 30 28 29 21 23 26 30 35 29 27 26 25 24 25 28 25 28 24 22 26 34 34 31 30 27 27 27 26
38 33 38 39 31 27 31 24 27 28 29 30 29 29 31 30 30 29 29 21 23 24 35 36 32 28 28 29 29 27 26 27 31 34 32 25 31 32 30 29 28 27 27 29 30
38 33 34 34 37 38 34 30 29 29 29 29 30 31 32 32 31 29 28 27 30 31 39 41 36 35 28 30 34 33 26 27 30 28 24 24 28 29 28 26 26 27 28 27 29
38 40 42 34 33 37 37 34 30 30 31 31 31 29 30 32 31 31 29 27 29 36 34 37 35 34 32 29 26 26 25 23 25 27 26 28 29 28 28 26 26 28 27 26 28
38 37 36 37 36 35 37 34 31 29 31 31 32 29 29 32 33 31 31 31 30 32 33 35 33 33 28 23 22 22 22 23 23 24 26 28 27 26 25 23 25 26 26 26 27
41 41 35 37 31 33 33 32 29 30 31 29 30 29 29 32 32 33 34 34 35 33 34 35 31 32 27 24 22 23 21 21 22 21 23 24 24 25 24 24 26 27 26 27 27
Lifted_Index
15 15 15 15 15 15 15 15 15 15 14 14 14 13 13 13 13 13 13 13 14 14 13 12 11 10 9 8 7 5 3 1 -1 -0 -0 -1 -2 -3 -3 -3 -3 -3 -3 -3 -3
15 16 16 16 16 15 15 15 15 15 14 14 14 13 13 13 13 12 13 14 14 14 13 12 11 10 9 8 6 5 3 0 -0 0 0 -1 -2 -3 -4 -3 -3 -3 -3 -3 -2
15 16 16 16 16 16 15 15 15 15 14 14 14 14 13 13 12 11 12 13 14 13 13 11 10 9 8 7 6 5 3 1 0 1 1 -0 -2 -3 -3 -3 -3 -3 -3 -2 -2
15 16 16 16 16 16 16 15 15 15 14 14 14 14 13 12 11 10 10 12 13 13 12 11 9 8 7 6 5 5 3 1 2 3 2 1 -1 -1 -1 -1 -2 -2 -1 -1 -1
15 16 16 16 16 16 15 15 15 14 14 14 14 14 13 12 11 9 9 11 12 12 11 10 9 8 6 5 5 4 3 3 4 5 3 2 1 1 1 1 1 1 1 0 -0
15 15 16 16 16 15 15 15 14 14 14 14 14 13 12 11 11 10 10 11 12 12 11 10 8 7 6 5 5 5 4 4 6 6 4 3 3 2 3 3 3 2 1 1 0
15 15 16 16 16 15 15 14 14 14 14 14 13 12 11 11 11 11 11 11 12 11 10 10 9 7 6 6 5 5 5 5 6 6 5 4 3 3 3 4 3 3 1 0 -0
15 15 16 16 15 15 14 14 14 14 14 13 12 10 10 11 11 11 11 11 11 11 10 10 9 8 6 6 5 5 5 5 5 5 4 4 4 4 4 4 3 3 2 1 0
15 15 15 15 15 15 14 14 14 13 13 12 11 9 10 11 11 10 10 10 10 10 10 10 9 8 6 5 4 4 3 3 4 5 4 4 4 5 5 4 3 2 2 1 0
15 15 15 15 15 15 14 13 12 12 11 11 10 9 9 10 10 10 9 9 9 9 9 9 8 7 6 4 3 2 1 1 3 4 5 4 5 5 5 4 3 2 2 1 1
15 15 15 15 14 14 12 10 9 8 9 9 9 9 9 9 10 9 9 8 8 8 8 7 7 5 4 3 2 1 0 1 3 5 5 5 5 6 6 5 4 3 2 2 2
14 14 14 14 13 12 10 8 7 7 7 7 8 8 8 8 9 9 8 8 7 7 6 6 5 4 4 3 3 2 1 2 4 5 5 5 5 6 6 6 5 4 3 3 4
14 14 14 13 11 9 7 7 7 7 6 6 7 7 7 7 8 8 8 7 7 6 5 4 3 3 3 4 3 3 2 2 3 4 4 4 4 5 6 6 5 4 4 5 5
14 14 13 11 9 7 6 6 7 6 5 5 6 6 6 6 6 7 7 7 6 5 4 3 3 3 4 3 3 3 2 2 3 4 3 3 3 4 5 5 5 5 5 6 6
14 14 13 11 8 6 6 6 6 4 3 4 5 6 6 5 5 6 6 6 5 4 4 3 3 3 3 3 2 2 1 1 2 3 2 2 2 2 3 4 5 5 6 7 8
13 13 12 10 7 6 6 5 4 3 2 2 4 5 5 5 4 5 5 5 5 4 3 3 2 3 3 2 2 2 1 1 2 2 2 1 1 1 2 4 5 6 7 8 9
13 13 11 9 7 6 5 4 3 2 1 2 3 4 4 4 4 4 4 4 4 3 2 2 2 2 3 2 2 2 1 0 1 1 1 0 0 1 2 4 5 6 8 9 10
11 11 10 8 6 5 4 3 2 1 1 2 2 2 2 2 3 3 3 3 3 2 1 1 1 1 2 2 2 1 1 0 -0 -0 -0 -0 0 1 2 4 5 7 9 10 10
9 8 8 7 6 5 4 2 1 2 2 2 1 1 1 1 1 1 1 1 1 1 1 0 -0 1 2 2 2 1 0 -0 -0 -0 -0 -0 0 1 2 3 5 7 9 9 10
6 6 6 6 5 4 3 1 1 2 3 3 1 -0 -0 -0 -0 -0 -0 0 0 1 1 0 -0 0 1 2 2 1 1 -0 -0 -0 -0 -0 0 1 1 3 5 7 8 9 10
4 4 5 5 4 3 2 1 2 3 3 3 2 0 -0 -0 -0 -1 -0 0 1 1 1 -0 -1 -1 0 1 1 1 1 0 -0 -0 -0 -0 1 1 2 3 5 7 9 10 10
2 3 4 4 3 2 1 1 2 3 3 3 2 2 1 0 0 -0 -0 1 1 1 0 -0 -1 -1 -1 0 1 1 1 0 -0 -0 -0 -0 1 2 4 5 7 8 10 11 11
1 2 3 3 2 1 1 2 2 3 3 2 2 2 1 1 0 0 1 2 2 1 1 0 -1 -1 -1 -0 0 1 0 0 -0 -0 -0 -0 1 3 4 6 8 9 10 11 11
1 1 2 2 1 1 1 1 2 2 2 2 2 2 2 1 1 1 1 2 2 2 1 1 -0 -1 -1 -0 1 1 0 0 0 -0 -0 -0 1 3 5 6 8 9 10 10 11
1 1 1 1 1 1 1 1 2 2 3 2 2 2 2 1 1 1 1 2 2 2 2 1 1 0 0 1 1 1 1 1 0 -0 -0 0 1 3 6 7 9 9 10 10 10
2 2 2 2 2 2 2 2 3 3 3 3 3 3 3 2 2 2 2 2 2 2 2 2 1 1 1 2 2 2 1 1 1 0 0 1 2 5 7 8 9 9 10 10 10
2 2 2 2 2 2 3 3 3 3 4 4 4 3 3 3 3 3 3 3 2 2 2 2 1 1 1 2 2 2 2 2 1 1 1 1 3 6 7 8 9 9 10 10 10